Tracking 25963 objects as of 13-Aug-2022
HD Live streaming from Space Station
objects crossing your sky now

EXPRESS 2

Track EXPRESS 2 now!
EXPRESS 2 is classified as:


NORAD ID: 24435
Int'l Code: 1996-058A
Perigee: 35,772.0 km
Apogee: 35,845.0 km
Inclination: 14.7 °
Period: 1,436.9 minutes
Semi major axis: 42179 km
RCS: 10 m2 (large)
Launch date: September 26, 1996
Source: Commonwealth of Independent States (former USSR) (CIS)
Launch site: TYURATAM MISSILE AND SPACE COMPLEX (TTMTR)
aabbcc
Your satellite tracking list
Your tracking list is empty




NASA's NSSDC Master Catalog

Two Line Element Set (TLE):
1 24435U 96058A   22223.91423201 -.00000241  00000-0  00000-0 0  9997
2 24435  14.6800   5.1565 0008656  19.3812 353.8382  1.00219112 94721
Source of the keplerian elements: AFSPC